This is the latest recevied weather packets stored in our database for station/object SQ5LTL-2. If no packets are shown the sender has not sent any weather packets the latest 10 day(s).
| Time | Temp. | Humidity | Pressure | Rain* | Wind** | Luminosity | Snow |
|---|---|---|---|---|---|---|---|
| 1777790119 | 16.67° C | 54% | 1020.6 hPa | 0 mm | - | 286 W/m² | - |
| 1777789818 | 16.11° C | 54% | 1020.5 hPa | 0 mm | - | 275 W/m² | - |
| 1777789517 | 16.11° C | 56% | 1020.6 hPa | 0 mm | - | 264 W/m² | - |
| 1777789234 | 15.56° C | 57% | 1020.5 hPa | 0 mm | - | 253 W/m² | - |
| 1777788933 | 15° C | 58% | 1020.5 hPa | 0 mm | - | 240 W/m² | - |
| 1777788632 | 15° C | 59% | 1020.5 hPa | 0 mm | - | 228 W/m² | - |
| 1777788330 | 14.44° C | 60% | 1020.5 hPa | 0 mm | - | 216 W/m² | - |
| 1777788029 | 14.44° C | 61% | 1020.6 hPa | 0 mm | - | 205 W/m² | - |
| 1777787727 | 13.89° C | 62% | 1020.6 hPa | 0 mm | - | 193 W/m² | - |
| 1777787425 | 13.89° C | 64% | 1020.7 hPa | 0 mm | - | 182 W/m² | - |
| 1777787124 | 13.33° C | 65% | 1020.7 hPa | 0 mm | - | 170 W/m² | - |
| 1777786824 | 13.33° C | 65% | 1020.8 hPa | 0 mm | - | 160 W/m² | - |
| 1777786521 | 12.78° C | 66% | 1020.8 hPa | 0 mm | - | 150 W/m² | - |
| 1777786220 | 12.78° C | 66% | 1020.7 hPa | 0 mm | - | 140 W/m² | - |
| 1777785919 | 12.22° C | 66% | 1020.7 hPa | 0 mm | - | 130 W/m² | - |
| 1777785617 | 12.22° C | 67% | 1020.7 hPa | 0 mm | - | 121 W/m² | - |
| 1777785336 | 11.67° C | 68% | 1020.7 hPa | 0 mm | - | 112 W/m² | - |
| 1777785034 | 11.67° C | 69% | 1020.8 hPa | 0 mm | - | 104 W/m² | - |
| 1777784733 | 11.11° C | 70% | 1020.7 hPa | 0 mm | - | 96 W/m² | - |
| 1777784432 | 11.11° C | 71% | 1020.7 hPa | 0 mm | - | 89 W/m² | - |
| 1777784129 | 10.56° C | 72% | 1020.7 hPa | 0 mm | - | 81 W/m² | - |
| 1777783829 | 10.56° C | 73% | 1020.8 hPa | 0 mm | - | 75 W/m² | - |
| 1777783528 | 10.56° C | 74% | 1020.8 hPa | 0 mm | - | 69 W/m² | - |
| 1777783227 | 10° C | 75% | 1020.8 hPa | 0 mm | - | 63 W/m² | - |
| 1777782925 | 10° C | 76% | 1020.7 hPa | 0 mm | - | 58 W/m² | - |
* Rain latest hour (hover to see other rain measurements)
** Current wind speed in m/s (hover to see current wind gust speed)